Location: アルンシュタイン
(50.0000°N, 10.0000°E)
Time: 19:16:20
(UTC+02:00)

Vanguard 3 - All Passes

Search period start: 11 September 2024 00:00
Search period end: 21 September 2024 00:00
Orbit: 507 x 3226 km, 33.3° (Epoch: 10 September)

Date Brightness Start Highest point End Pass type
(mag) Time Alt. Az. Time Alt. Az. Time Alt. Az.
11 Sep - 06:52:59 10° S 07:03:15 17° SE 07:12:46 10° ESE daylight
11 Sep - 09:00:17 10° SSW 09:16:00 33° SSE 09:28:20 10° ESE daylight
11 Sep - 11:13:21 10° WSW 11:29:07 39° S 11:39:46 10° ESE daylight
11 Sep - 13:29:00 10° WSW 13:41:00 30° SSW 13:48:57 10° SSE daylight
11 Sep - 15:49:24 10° SW 15:50:47 10° SW 15:52:05 10° SW daylight
12 Sep - 07:41:10 10° SSW 07:55:28 26° SSE 08:07:58 10° ESE daylight
12 Sep - 09:52:01 10° SW 10:08:42 39° S 10:20:59 10° ESE daylight
12 Sep - 12:06:35 10° WSW 12:21:32 38° SSW 12:31:26 10° SE daylight
12 Sep - 14:23:23 10° WSW 14:32:33 21° SW 14:39:09 10° S daylight
13 Sep - 06:24:08 10° S 06:35:11 18° SE 06:45:47 10° ESE visible
13 Sep - 08:31:40 10° SW 08:47:58 35° SSE 09:01:25 10° ESE daylight
13 Sep - 10:44:39 10° WSW 11:01:22 41° S 11:13:08 10° ESE daylight
13 Sep - 13:00:19 10° WSW 13:13:36 31° SSW 13:22:32 10° SSE daylight
13 Sep - 15:19:57 10° WSW 15:23:37 12° SW 15:26:49 10° SSW daylight
14 Sep - 07:12:39 10° SSW 07:27:18 28° SSE 07:40:47 10° E daylight
14 Sep - 09:23:25 10° SW 09:40:40 41° S 09:54:06 10° ESE daylight
14 Sep - 11:37:51 10° WSW 11:53:51 39° SSW 12:04:50 10° SE daylight
14 Sep - 13:54:42 10° W 14:05:11 23° SW 14:12:43 10° S daylight
15 Sep - 05:55:34 10° S 06:06:59 20° SE 06:18:25 10° ESE visible
15 Sep - 08:03:13 10° SW 08:19:45 36° SSE 08:34:14 10° ESE daylight
15 Sep - 10:16:00 10° WSW 10:33:23 43° S 10:46:18 10° ESE daylight
15 Sep - 12:31:33 10° W 12:45:58 33° SSW 12:55:57 10° SSE daylight
15 Sep - 14:50:59 10° WSW 14:56:16 13° SW 15:00:42 10° SSW daylight
16 Sep - 04:44:18 10° SE 04:47:17 11° SE 04:50:17 10° ESE visible
16 Sep - 06:44:20 10° SSW 06:58:59 29° SSE 07:13:18 10° E daylight
16 Sep - 08:54:57 10° SW 09:12:26 42° S 09:26:58 10° ESE daylight
16 Sep - 11:09:09 10° WSW 11:25:56 41° SSW 11:38:01 10° SE daylight
16 Sep - 13:25:55 10° W 13:37:36 24° SW 13:46:06 10° S daylight
17 Sep - 05:27:18 10° S 05:38:43 20° SE 05:50:41 10° E visible
17 Sep - 07:34:56 10° SW 07:51:22 38° SSE 08:06:47 10° E daylight
17 Sep - 09:47:27 10° WSW 10:05:11 44° S 10:19:13 10° ESE daylight
17 Sep - 12:02:47 10° W 12:18:07 34° SSW 12:29:07 10° SSE daylight
17 Sep - 14:22:03 10° WSW 14:28:41 14° SW 14:34:12 10° SSW daylight
18 Sep - 04:15:17 10° SE 04:19:07 11° SE 04:23:04 10° ESE visible
18 Sep - 06:16:13 10° SSW 06:30:35 30° SSE 06:45:31 10° E visible
18 Sep - 08:26:37 10° SW 08:44:02 44° S 08:59:35 10° ESE daylight
18 Sep - 10:40:30 10° WSW 10:57:48 42° SSW 11:10:58 10° SE daylight
18 Sep - 12:57:06 10° W 13:09:48 25° SW 13:19:16 10° S daylight
19 Sep - 04:59:16 10° S 05:10:23 21° SE 05:22:37 10° E visible
19 Sep - 07:06:50 10° SW 07:22:53 39° SSE 07:39:03 10° E daylight
19 Sep - 09:19:01 10° WSW 09:36:49 45° S 09:51:54 10° ESE daylight
19 Sep - 11:34:02 10° W 11:50:02 35° SSW 12:02:05 10° SSE daylight
19 Sep - 13:53:08 10° WSW 14:00:55 15° SW 14:07:23 10° SSW daylight
20 Sep - 03:47:00 10° SE 03:50:56 11° SE 03:55:02 10° ESE visible
20 Sep - 05:48:17 10° SSW 06:02:07 31° SSE 06:17:27 10° E visible
20 Sep - 07:58:27 10° SW 08:15:31 44° S 08:31:56 10° ESE daylight
20 Sep - 10:11:57 10° WSW 10:29:27 42° SSW 10:43:41 10° SE daylight
20 Sep - 12:28:17 10° W 12:41:46 26° SW 12:52:11 10° SSE daylight
